Location: Dornbirn
(47.4124°N, 9.7438°E)
Time: 06:54:24
(UTC+01:00)

ISS - Visible Passes

Search period start: 11 December 2017 00:00
Search period end: 21 December 2017 00:00
Orbit: 402 x 407 km, 51.6° (Epoch: 11 December)

Date Brightness Start Highest point End Pass type
(mag) Time Alt. Az. Time Alt. Az. Time Alt. Az.
11 Dec -3.9 18:11:50 10° WNW 18:15:07 69° NNE 18:15:48 50° E visible
12 Dec -3.5 17:19:34 10° WNW 17:22:48 51° NNE 17:25:59 10° E visible
12 Dec -2.3 18:56:08 10° WNW 18:58:40 37° WSW 18:58:40 37° WSW visible
13 Dec -3.6 18:03:47 10° WNW 18:07:04 69° SSW 18:09:02 22° SE visible
13 Dec -0.3 19:41:35 10° WSW 19:41:44 10° WSW 19:41:44 10° WSW visible
14 Dec -3.9 17:11:30 10° WNW 17:14:48 78° NNE 17:18:05 10° ESE visible
14 Dec -1.4 18:48:26 10° W 18:51:00 21° SW 18:52:20 16° S visible
15 Dec -2.2 17:55:50 10° WNW 17:58:52 34° SW 18:01:53 10° SSE visible
16 Dec -3.1 17:03:25 10° WNW 17:06:40 58° SSW 17:09:53 10° SE visible
16 Dec -0.3 18:42:15 10° SW 18:42:32 10° SW 18:42:50 10° SW visible
17 Dec -0.8 17:48:12 10° W 17:50:29 17° SW 17:52:45 10° S visible
